This demonstration page uses our WeatherBlox Daily Observations layout. Learn more.

Left ArrowRight Arrow

38.83388, -104.82136

Hourly Observations for November 11, 2019

Temp ( °F °C ) Dew Point ( °F °C ) Humidity (%) Winds ( mph kmh ) Pressure ( in mb ) Visibility ( mi km ) Precip ( " mm )
12:03 am 00:03 Cloudy 30 -1 28 -2 93 93 N 12 19 29.78 1008 10 16 0.00 0.00
12:58 am 00:58 Cloudy 29 -1.9 25 -4.1 85 85 N 13 20 29.81 1009 10 16 0.00 0.00
1:18 am 01:18 Cloudy 27 -3 23 -5 86 86 NNW 10 17 29.82 1010 10 16 0.00 0.00
1:58 am 01:58 Cloudy 25 -3.7 22 -5.6 87 87 N 16 26 29.85 1011 10 16 0.00 0.00
2:58 am 02:58 Cloudy 22 -5.7 18 -7.7 86 86 NNW 17 28 29.92 1013 10 16 0.00 0.00
3:00 am 03:00 Cloudy with Light Snow 21 -6 18 -8 86 86 NNW 15 24 29.92 1013 10 16 0.00 0.00
3:46 am 03:46 Cloudy with Light Freezing Drizzle 19 -7 16 -9 86 86 NNW 18 30 29.92 1013 10 16 0.00 0.00
3:58 am 03:58 Cloudy with Light Freezing Drizzle 19 -7 16 -9 86 86 NNW 16 26 29.93 1014 9 14 0.00 0.00
3:59 am 03:59 Cloudy with Light Snow 19 -7 16 -9 86 86 NNW 17 28 29.93 1014 8 13 0.00 0.00
4:14 am 04:14 Cloudy with Light Snow 19 -7 14 -10 79 79 NNW 17 28 29.94 1014 7 11 0.00 0.00
4:58 am 04:58 Cloudy with Light Snow 16 -8.9 11 -11.5 82 82 NNW 18 30 30.00 1016 4 6 0.00 0.00
5:03 am 05:03 Cloudy with Light Snow 16 -9 12 -11 86 86 NNW 18 30 30.01 1016 4 6 0.00 0.00
5:58 am 05:58 Cloudy with Light Snow 15 -9.4 10 -12.1 81 81 N 16 26 30.03 1017 7 11 0.00 0.00
6:18 am 06:18 Cloudy with Light Snow 14 -10 9 -13 79 79 NNW 9 15 30.07 1018 8 13 0.00 0.00
6:58 am 06:58 Cloudy with Light Snow 14 -10.2 9 -12.7 82 82 NNW 12 19 30.64 1038 9 14 0.00 0.00
7:28 am 07:28 Cloudy with Light Snow 16 -9 9 -13 73 73 Calm 30.14 1021 10 16 0.00 0.00
7:58 am 07:58 Cloudy with Light Snow 16 -8.8 14 -10.2 90 90 SSE 9 15 30.12 1020 10 16 0.00 0.00
8:32 am 08:32 Cloudy with Light Snow 18 -8 14 -10 86 86 SE 3 6 30.14 1021 8 13 0.00 0.00
8:42 am 08:42 Cloudy with Light Snow 18 -8 14 -10 86 86 Calm 30.14 1021 9 14 0.00 0.00
8:47 am 08:47 Cloudy with Light Snow 18 -8 14 -10 86 86 NE 3 6 30.14 1021 10 16 0.00 0.00
8:52 am 08:52 Cloudy with Light Snow 18 -8 14 -10 86 86 N 5 7 30.13 1020 10 16 0.00 0.00
8:58 am 08:58 Cloudy with Light Snow 17 -8.1 13 -10.4 84 84 NNE 7 11 30.16 1021 10 16 0.00 0.00
9:16 am 09:16 Cloudy 18 -8 12 -11 79 79 N 6 9 30.16 1021 10 16 0.00 0.00
9:26 am 09:26 Cloudy 18 -8 12 -11 79 79 N 5 7 30.16 1021 10 16 0.00 0.00
9:31 am 09:31 Cloudy with Light Snow Showers 18 -8 12 -11 79 79 NNE 5 7 30.17 1022 10 16 0.00 0.00
9:48 am 09:48 Cloudy 18 -8 14 -10 86 86 NE 3 6 30.62 1037 10 16 0.00 0.00
9:49 am 09:49 Cloudy with Light Snow Showers 18 -8 12 -11 79 79 NE 6 9 30.62 1037 10 16 0.00 0.00
9:58 am 09:58 Cloudy with Light Snow Showers 18 -7.7 12 -10.9 78 78 ENE 3 6 30.21 1023 10 16 0.00 0.00
10:18 am 10:18 Cloudy with Light Snow Showers 18 -8 12 -11 79 79 Calm 30.63 1037 10 16 0.00 0.00
10:58 am 10:58 Mostly Cloudy with Light Snow Showers 19 -7 13 -10.8 75 75 ESE 3 6 30.60 1036 10 16 0.00 0.00
11:13 am 11:13 Cloudy with Light Snow Showers 19 -7 16 -9 86 86 ESE 7 11 30.23 1024 10 16 0.00 0.00
11:33 am 11:33 Cloudy with Light Snow 19 -7 16 -9 86 86 ESE 14 22 30.23 1024 10 16 0.00 0.00
11:53 am 11:53 Cloudy with Light Snow 18 -8 16 -9 93 93 SE 10 17 30.23 1024 10 16 0.00 0.00
11:58 am 11:58 Cloudy with Light Snow 18 -7.8 14 -9.8 86 86 SE 5 7 30.23 1024 10 16 0.00 0.00
12:09 pm 12:09 Cloudy 18 -8 14 -10 86 86 SE 8 13 30.22 1023 10 16 0.00 0.00
12:19 pm 12:19 Cloudy 19 -7 14 -10 79 79 SSE 7 11 30.22 1023 10 16 0.00 0.00
12:58 pm 12:58 Mostly Cloudy 19 -7 16 -9.1 85 85 SSE 9 15 30.22 1024 10 16 0.00 0.00
1:33 pm 13:33 Mostly Cloudy 21 -6 16 -9 80 80 SE 8 13 30.22 1024 10 16 0.00 0.00
1:58 pm 13:58 Mostly Cloudy 21 -6.3 16 -8.8 83 83 ESE 8 13 30.22 1024 10 16 0.00 0.00
2:38 pm 14:38 Partly Cloudy 21 -6 18 -8 86 86 Calm 30.24 1024 10 16 0.00 0.00
2:58 pm 14:58 Sunny 21 -6.2 17 -8.5 84 84 Calm 30.25 1024 10 16 0.00 0.00
3:58 pm 15:58 Sunny 21 -6.2 16 -8.7 83 83 SSE 3 6 30.27 1025 10 16 0.00 0.00
4:58 pm 16:58 Clear 20 -6.8 16 -9 85 85 S 9 15 30.30 1026 10 16 0.00 0.00
5:58 pm 17:58 Clear 21 -6.3 16 -8.9 82 82 NNW 3 6 30.30 1026 10 16 0.00 0.00
6:58 pm 18:58 Clear 20 -6.4 15 -9.3 80 80 Calm 30.31 1026 10 16 0.00 0.00
7:58 pm 19:58 Clear 20 -6.4 16 -8.8 83 83 Calm 30.30 1026 10 16 0.00 0.00
8:58 pm 20:58 Clear 19 -7.2 15 -9.3 85 85 Calm 30.32 1027 10 16 0.00 0.00
9:58 pm 21:58 Clear 18 -7.6 15 -9.2 88 88 SSE 5 7 30.32 1027 10 16 0.00 0.00
10:58 pm 22:58 Clear 17 -8.1 15 -9.5 90 90 Calm 30.28 1025 10 16 0.00 0.00
11:58 pm 23:58 Clear 18 -7.9 15 -9.5 88 88 Calm 30.29 1026 10 16 0.00 0.00

Powered by AerisWeather